TimeWET,TemperatureF,Dew PointF,Humidity,Sea Level PressureIn,VisibilityMPH,Wind Direction,Wind SpeedMPH,Gust SpeedMPH,PrecipitationIn,Events,Conditions,WindDirDegrees,DateUTC
12:00 AM,64,56,68,30.09,6,NNE,4.6,,,,,30,2013-04-12 00:00:00
12:00 AM,64.4,55.4,73,30.12,-9999.0,NNE,4.6,-,N/A,,Clear,30,2013-04-12 00:00:00
12:30 AM,62.6,55.4,77,30.12,-9999.0,NE,4.6,-,N/A,,Clear,40,2013-04-12 00:30:00
1:00 AM,62.6,55.4,77,30.09,-9999.0,NE,1.2,-,N/A,,Clear,40,2013-04-12 01:00:00
1:30 AM,62.6,55.4,77,30.09,-9999.0,Calm,Calm,-,N/A,,Clear,0,2013-04-12 01:30:00
2:00 AM,62.6,55.4,77,30.06,-9999.0,ESE,2.3,-,N/A,,Clear,110,2013-04-12 02:00:00
2:30 AM,60.8,55.4,82,30.06,-9999.0,ENE,3.5,-,N/A,,Clear,70,2013-04-12 02:30:00
3:00 AM,60,55,78,30.04,6,WNW,2.3,,,,,300,2013-04-12 03:00:00
3:00 AM,60.8,55.4,82,30.06,-9999.0,East,2.3,-,N/A,,Clear,80,2013-04-12 03:00:00
3:30 AM,59.0,55.4,88,30.06,-9999.0,Variable,2.3,-,N/A,,Clear,0,2013-04-12 03:30:00
4:00 AM,57.2,55.4,94,30.04,-9999.0,West,3.5,-,N/A,,Clear,270,2013-04-12 04:00:00
4:30 AM,57.2,55.4,94,30.04,-9999.0,West,3.5,-,N/A,,Clear,260,2013-04-12 04:30:00
5:00 AM,57.2,55.4,94,30.04,-9999.0,SW,2.3,-,N/A,,Clear,230,2013-04-12 05:00:00
5:30 AM,57.2,53.6,88,30.04,-9999.0,WSW,3.5,-,N/A,,Clear,240,2013-04-12 05:30:00
6:00 AM,55,54,93,30.04,6,WSW,3.5,,,,,250,2013-04-12 06:00:00
6:00 AM,55.4,53.6,94,30.04,-9999.0,WSW,3.5,-,N/A,,Clear,250,2013-04-12 06:00:00
6:30 AM,55.4,53.6,94,30.04,-9999.0,SW,3.5,-,N/A,,Clear,230,2013-04-12 06:30:00
7:00 AM,57.2,55.4,94,30.04,-9999.0,WSW,3.5,-,N/A,,Clear,250,2013-04-12 07:00:00
7:30 AM,57.2,55.4,94,30.06,-9999.0,WSW,4.6,-,N/A,,Clear,250,2013-04-12 07:30:00
8:00 AM,59.0,55.4,88,30.06,-9999.0,WSW,3.5,-,N/A,,Clear,250,2013-04-12 08:00:00
8:30 AM,60.8,57.2,88,30.06,5.0,West,3.5,-,N/A,,Unknown,270,2013-04-12 08:30:00
8:48 AM,63,56,72,30.03,5,South,2.3,,,,Clear,180,2013-04-12 08:48:00
9:00 AM,62.6,57.2,82,30.06,5.0,Variable,2.3,-,N/A,,Unknown,0,2013-04-12 09:00:00
9:30 AM,66.2,57.2,73,30.06,-9999.0,Variable,2.3,-,N/A,,Clear,0,2013-04-12 09:30:00
10:00 AM,69.8,57.2,64,30.06,5.0,Variable,3.5,-,N/A,,Unknown,0,2013-04-12 10:00:00
10:30 AM,69.8,55.4,60,30.06,3.7,NW,3.5,-,N/A,,Unknown,320,2013-04-12 10:30:00
11:00 AM,71.6,53.6,53,30.04,3.7,NNW,5.8,-,N/A,,Unknown,330,2013-04-12 11:00:00
11:30 AM,73.4,48.2,41,30.04,3.7,NNW,5.8,-,N/A,,Unknown,340,2013-04-12 11:30:00
12:00 PM,75,48,28,29.98,4,NNW,5.8,,,,Clear,330,2013-04-12 12:00:00
12:00 PM,75.2,48.2,38,30.04,3.7,NNW,5.8,-,N/A,,Unknown,330,2013-04-12 12:00:00
12:30 PM,77.0,44.6,32,30.04,3.7,Variable,3.5,-,N/A,,Unknown,0,2013-04-12 12:30:00
1:00 PM,78.8,44.6,30,30.04,3.7,NNW,5.8,-,N/A,,Mostly Cloudy,340,2013-04-12 13:00:00
1:30 PM,78.8,48.2,34,30.01,3.7,Variable,2.3,-,N/A,,Mostly Cloudy,0,2013-04-12 13:30:00
2:00 PM,80.6,48.2,32,30.01,3.7,NW,5.8,-,N/A,,Mostly Cloudy,320,2013-04-12 14:00:00
2:45 PM,81,47,20,29.91,4,NW,8.1,,,,Scattered Clouds,320,2013-04-12 14:45:00
3:00 PM,80.6,48.2,32,29.98,3.7,Variable,3.5,-,N/A,,Mostly Cloudy,0,2013-04-12 15:00:00
3:30 PM,80.6,48.2,32,29.98,3.7,NNW,6.9,-,N/A,,Mostly Cloudy,340,2013-04-12 15:30:00
4:00 PM,80.6,50.0,34,29.98,3.7,NW,3.5,-,N/A,,Mostly Cloudy,320,2013-04-12 16:00:00
4:30 PM,80.6,48.2,32,29.95,3.7,NW,3.5,-,N/A,,Mostly Cloudy,320,2013-04-12 16:30:00
5:00 PM,80.6,50.0,34,29.98,6.2,NNW,5.8,-,N/A,,Mostly Cloudy,330,2013-04-12 17:00:00
5:30 PM,80.6,50.0,34,29.98,6.2,WNW,5.8,-,N/A,,Mostly Cloudy,290,2013-04-12 17:30:00
6:00 PM,80,50,25,29.90,6,NW,6.9,,,,Scattered Clouds,320,2013-04-12 18:00:00
6:00 PM,80.6,50.0,34,29.98,6.2,NW,5.8,-,N/A,,Mostly Cloudy,320,2013-04-12 18:00:00
6:30 PM,78.8,50.0,36,29.98,6.2,NNW,8.1,-,N/A,,Mostly Cloudy,340,2013-04-12 18:30:00
7:00 PM,77.0,51.8,41,29.98,6.2,North,9.2,-,N/A,,Mostly Cloudy,350,2013-04-12 19:00:00
7:30 PM,73.4,53.6,50,29.98,6.2,North,9.2,-,N/A,,Mostly Cloudy,360,2013-04-12 19:30:00
8:00 PM,71.6,55.4,57,30.01,6.2,NNE,8.1,-,N/A,,Mostly Cloudy,20,2013-04-12 20:00:00
8:30 PM,69.8,55.4,60,30.01,-9999.0,North,8.1,-,N/A,,Clear,10,2013-04-12 20:30:00
9:00 PM,68,56,57,29.98,6,NE,5.8,,,,Clear,40,2013-04-12 21:00:00
9:00 PM,68.0,55.4,64,30.01,-9999.0,NE,6.9,-,N/A,,Clear,40,2013-04-12 21:00:00
9:30 PM,68.0,57.2,68,30.04,-9999.0,NE,5.8,-,N/A,,Clear,40,2013-04-12 21:30:00
10:00 PM,68.0,57.2,68,30.04,-9999.0,North,3.5,-,N/A,,Clear,10,2013-04-12 22:00:00
10:30 PM,68.0,57.2,68,30.04,-9999.0,North,8.1,-,N/A,,Clear,360,2013-04-12 22:30:00
11:00 PM,66.2,57.2,73,30.06,-9999.0,North,6.9,-,N/A,,Clear,360,2013-04-12 23:00:00
11:30 PM,64.4,57.2,77,30.04,-9999.0,NNE,5.8,-,N/A,,Clear,20,2013-04-12 23:30:00